Zurück zum Katalog

STARLINK-36577

AktivKommunikationSSO
NORAD 67583·PAYLOAD·🇺🇸 United States

Gestartet Jan 25, 2026 von Vandenberg Space Force Base

Loading…

Nächste Überflüge (nächste 24 Stunden)

TLE

AktuellSource: CelesTrak SupGP

Epoche: Sep 14, 2026, 22:39 UTC

1 67583C 26016Y   26257.94423611 -.00001370  00000+0 -42529-4 0  2571
2 67583  97.2848 316.7547 0001161  97.1039 255.3950 15.33439024    14

Verfolge STARLINK-36577 in Echtzeit mit AllMySat

Download on the App Store